Regional Weather Roundup
Issued by NWS

Home | Current Version | Previous Version | Text Only | Print | Product List | Glossary Off
Versions: 1 2 3 4 5 6 7 8 9 10 11 12 13 14 15 16 17 18 19 20 21 22 23 24 25 26 27 28 29 30 31 32 33 34 35 36 37 38 39 40 41 42 43 44 45 46 47 48 49 50

000
ASUS45 KCYS 260010
RWRWY

WYOMING REGIONAL WEATHER ROUNDUP
NATIONAL WEATHER SERVICE CHEYENNE WY
600 PM MDT MON SEP 25 2017

NOTE:  "FAIR" INDICATES FEW OR NO CLOUDS BELOW 12,000 FEET
WITH NO SIGNIFICANT WEATHER AND/OR OBSTRUCTIONS TO VISIBILITY.

WYZ001-260100-
YELLOWSTONE NATIONAL PARK

CITY           SKY/WX    TMP DP  RH WIND       PRES   REMARKS
LK YELLOWSTONE NOT AVBL
W YELLOWSTONE  NOT AVBL

$$
WYZ002>013-054>058-071-098>099-260100-
NORTHERN WYOMING

CITY           SKY/WX    TMP DP  RH WIND       PRES   REMARKS
JACKSON        CLOUDY    45  27  49 VRB6      30.14R
CODY           CLOUDY    50  35  56 E5        30.09R
GREYBULL       PTSUNNY   52  40  63 SE5       30.07S
6HR MIN TEMP:  46; 6HR MAX TEMP:  53;

WORLAND        CLOUDY    52  39  61 NE3       30.07R
6HR MIN TEMP:  49; 6HR MAX TEMP:  54;

SHERIDAN       CLOUDY    50  40  68 SW5       30.08S
6HR MIN TEMP:  50; 6HR MAX TEMP:  53;

BUFFALO        CLOUDY    46  37  71 NW5       30.10S
6HR MIN TEMP:  44; 6HR MAX TEMP:  47; 6HR PCP:  0.02;

GILLETTE       FAIR      49  40  71 N7        30.08S
6HR MIN TEMP:  44; 6HR MAX TEMP:  49;

HULETT         CLOUDY    45  41  87 N3        30.10S
NEWCASTLE      FAIR      48  36  61 SE8       30.09F

$$
WYZ014>020-022>026-101>103-260100-
CENTRAL WYOMING

CITY           SKY/WX    TMP DP  RH WIND       PRES   REMARKS
BIG PINEY      CLOUDY    44  28  53 NW17      30.15R
6HR MIN TEMP:  40; 6HR MAX TEMP:  47; 6HR PCP: TRACE;

PINEDALE       CLOUDY    41  28  60 NW15      30.15R
DUBOIS         CLOUDY    39  28  65 NW15      30.12R WCI  31
LANDER         CLOUDY    48  37  65 SW9       30.07S
6HR MIN TEMP:  45; 6HR MAX TEMP:  52; 6HR PCP: TRACE;

RIVERTON       CLOUDY    50  34  54 SE6       30.09R
6HR MIN TEMP:  44; 6HR MAX TEMP:  52;

CASPER         FAIR      49  33  54 W8        30.08S
6HR MIN TEMP:  41; 6HR MAX TEMP:  53;

DOUGLAS        CLOUDY    51  37  58 CALM      30.08S
6HR MIN TEMP:  47; 6HR MAX TEMP:  54;


$$
WYZ021-027>030-104>119-260100-
SOUTHERN WYOMING

CITY           SKY/WX    TMP DP  RH WIND       PRES   REMARKS
EVANSTON       CLOUDY    45  29  53 CALM      30.15R
6HR MIN TEMP:  42; 6HR MAX TEMP:  45;

FORT BRIDGER   MOCLDY    49  32  52 NW9       30.17S
ROCK SPRINGS   CLOUDY    46  28  49 W13       30.13R
6HR MIN TEMP:  40; 6HR MAX TEMP:  46;

DIXON          MOCLDY    51  28  40 W7        30.14S
RAWLINS        CLOUDY    45  32  60 SW7       30.12R
6HR MIN TEMP:  42; 6HR MAX TEMP:  47;

SARATOGA       CLOUDY    46  28  49 W8G17     30.13R
LARAMIE        FAIR      46  30  53 N10       30.09S
6HR MIN TEMP:  45; 6HR MAX TEMP:  50;

CHEYENNE       CLOUDY    50  39  66 SE13      30.07S
6HR MIN TEMP:  46; 6HR MAX TEMP:  56;

TORRINGTON     FAIR      54  39  57 NE3       30.05F
6HR MIN TEMP:  48; 6HR MAX TEMP:  56;

PINE BLUFFS    FAIR      48  37  66 NE9       30.08F

$$



USA.gov is the U.S. government's official web portal to all federal, state and local government web resources and services.